STARLINK-35672 (66394 NORAD) Tracking and Keplerian Element Data

This shows tracking and keplerian element data for the satellite.

Feedback or suggestion? Click here.




ElementValue
Catalog66394
NameSTARLINK-35672
Epoch Orbit749
Epoch Day354.01775637
Epoch Year2025
RAAN230.0478
Inclination53.1585
Eccentricity0.0001185
Argument of Perigee105.4373
Mean Anonmoly254.6763
Mean Motion15.39621839
Decay Rate0.00028375
L11 66394U 25257Q 25354.01775637 .00028375 00000+0 71668-3 0 9999
L22 66394 53.1585 230.0478 0001185 105.4373 254.6763 15.39621839 7499



Live tracking and technical data element details for STARLINK-35672 (NORAD 66394). STARLINK-35672 can be tracked NOW for your location showing map with azimuth and elevation plus other details from your city location.







IsCatalogInMostPopularTable: catalog: 66394, numindb: 10
Update: records affected: 1



GetName: 66394 STARLINK-35672

Hit Count: updated at: Tue, 21 Apr 2026 20:32:04 GMT